Tracking 26492 objects as of 8-Dec-2022
HD Live streaming from Space Station
objects crossing your sky now

STARLINK-5052

Track STARLINK-5052 now!
10-day predictions
STARLINK-5052 is classified as:


NORAD ID: 53893
Int'l Code: 2022-119H
Perigee: 545.6 km
Apogee: 548.2 km
Inclination: 53.2 °
Period: 95.4 minutes
Semi major axis: 6917 km
RCS: Unknown
Launch date: September 24, 2022
Source: United States (US)
Launch site: AIR FORCE EASTERN TEST RANGE (AFETR)
aabbcc
Your satellite tracking list
Your tracking list is empty




NASA's NSSDC Master Catalog

Two Line Element Set (TLE):
1 53893U 22119H   22341.46485474 -.00001717  00000-0 -89804-4 0  9998
2 53893  53.2164 258.2150 0001840  48.0293 312.0856 15.08832770 12305
Source of the keplerian elements: AFSPC